When you browse on this site, cookies collect data to enhance your experience and personalize the content and advertising you see.
Visit our Privacy Policy to learn more. By continuing to use the site, you agree to this use of cookies and data.
  • în România
  • Lista ţărilor
  • Pe 7 zile
  • Temperatura apei
  • Meteo pe hartă
  • Widget-uri
  • user-avatar
    Intrare

    Meteo pe oră la Reşiţa

    Astăzi, 3 Iunie, Miercuri

    Timp Temperatura Precipitaţii Vânt Presiune Umiditate
    00:00 +8°C° 0 mm 1 m/s 733 mmHg 86%
    01:00 +8°C° 0 mm 1 m/s 733 mmHg 86%
    02:00 +8°C° 0 mm 1 m/s 733 mmHg 87%
    03:00 +8°C° 0 mm 1 m/s 732 mmHg 88%
    04:00 +8°C° 0 mm 1 m/s 732 mmHg 88%
    05:00 +10°C° 0 mm 1 m/s 732 mmHg 85%
    06:00 +12°C° 0 mm 1 m/s 732 mmHg 82%
    07:00 +14°C° 0 mm 1 m/s 732 mmHg 79%
    08:00 +15°C° 0.4 mm 2 m/s 732 mmHg 77%
    09:00 +16°C° 0.4 mm 2 m/s 732 mmHg 74%
    10:00 +17°C° 0.4 mm 3 m/s 732 mmHg 72%
    11:00 +17°C° 0.5 mm 3 m/s 732 mmHg 69%
    12:00 +18°C° 0.5 mm 3 m/s 731 mmHg 67%
    13:00 +19°C° 0.5 mm 3 m/s 731 mmHg 64%
    14:00 +18°C° 0.7 mm 3 m/s 731 mmHg 69%
    15:00 +18°C° 0.7 mm 3 m/s 731 mmHg 75%
    16:00 +17°C° 0.7 mm 3 m/s 730 mmHg 80%
    17:00 +16°C° 0.5 mm 2 m/s 730 mmHg 84%
    18:00 +15°C° 0.5 mm 2 m/s 730 mmHg 88%
    19:00 +13°C° 0.5 mm 1 m/s 730 mmHg 92%
    20:00 +13°C° 0 mm 1 m/s 730 mmHg 93%
    21:00 +12°C° 0 mm 1 m/s 731 mmHg 93%
    22:00 +12°C° 0 mm 2 m/s 731 mmHg 93%
    23:00 +10°C° 0 mm 2 m/s 731 mmHg 93%

    Mâine, 4 Iunie, Joi

    Timp Temperatura Precipitaţii Vânt Presiune Umiditate
    00:00 +10°C° 0 mm 2 m/s 731 mmHg 94%
    01:00 +10°C° 0 mm 2 m/s 731 mmHg 94%
    02:00 +10°C° 0 mm 2 m/s 731 mmHg 94%
    03:00 +10°C° 0 mm 2 m/s 731 mmHg 94%
    04:00 +11°C° 0 mm 1 m/s 730 mmHg 94%
    05:00 +13°C° 0 mm 2 m/s 731 mmHg 91%
    06:00 +15°C° 0 mm 2 m/s 731 mmHg 88%
    07:00 +17°C° 0 mm 2 m/s 731 mmHg 84%
    08:00 +18°C° 0.2 mm 2 m/s 731 mmHg 78%
    09:00 +20°C° 0.2 mm 3 m/s 731 mmHg 71%
    10:00 +22°C° 0.2 mm 4 m/s 731 mmHg 64%
    11:00 +22°C° 0.5 mm 4 m/s 731 mmHg 65%
    12:00 +22°C° 0.5 mm 4 m/s 731 mmHg 66%
    13:00 +23°C° 0.5 mm 5 m/s 731 mmHg 67%
    14:00 +23°C° 0.5 mm 4 m/s 730 mmHg 69%
    15:00 +24°C° 0.5 mm 3 m/s 730 mmHg 70%
    16:00 +24°C° 0.5 mm 2 m/s 730 mmHg 72%
    17:00 +23°C° 0.2 mm 2 m/s 730 mmHg 75%
    18:00 +20°C° 0.2 mm 2 m/s 730 mmHg 79%
    19:00 +18°C° 0.2 mm 2 m/s 730 mmHg 82%
    20:00 +18°C° 0 mm 2 m/s 730 mmHg 81%
    21:00 +17°C° 0 mm 3 m/s 730 mmHg 80%
    22:00 +16°C° 0 mm 3 m/s 730 mmHg 80%
    23:00 +16°C° 0 mm 3 m/s 730 mmHg 77%

    Poimâine, 5 Iunie, Vineri

    Timp Temperatura Precipitaţii Vânt Presiune Umiditate
    00:00 +16°C° 0 mm 3 m/s 730 mmHg 74%
    01:00 +14°C° 0 mm 3 m/s 730 mmHg 72%
    02:00 +16°C° 0 mm 3 m/s 730 mmHg 68%
    03:00 +17°C° 0 mm 3 m/s 730 mmHg 65%
    04:00 +17°C° 0 mm 3 m/s 730 mmHg 62%
    05:00 +18°C° 0 mm 3 m/s 730 mmHg 63%
    06:00 +20°C° 0 mm 3 m/s 730 mmHg 64%
    07:00 +21°C° 0 mm 3 m/s 730 mmHg 65%
    08:00 +21°C° 0 mm 3 m/s 730 mmHg 64%
    09:00 +22°C° 0 mm 3 m/s 730 mmHg 62%
    10:00 +22°C° 0 mm 4 m/s 731 mmHg 60%
    11:00 +22°C° 0 mm 4 m/s 730 mmHg 61%
    12:00 +22°C° 0 mm 4 m/s 730 mmHg 62%
    13:00 +22°C° 0 mm 5 m/s 730 mmHg 63%
    14:00 +22°C° 0.1 mm 4 m/s 730 mmHg 67%
    15:00 +21°C° 0.1 mm 4 m/s 730 mmHg 70%
    16:00 +20°C° 0.1 mm 3 m/s 730 mmHg 74%
    17:00 +19°C° 0.2 mm 3 m/s 730 mmHg 78%
    18:00 +18°C° 0.2 mm 2 m/s 730 mmHg 82%
    19:00 +17°C° 0.2 mm 2 m/s 731 mmHg 86%
    20:00 +17°C° 0 mm 2 m/s 731 mmHg 86%
    21:00 +17°C° 0 mm 2 m/s 731 mmHg 85%
    22:00 +17°C° 0 mm 2 m/s 732 mmHg 84%
    23:00 +17°C° 0 mm 2 m/s 732 mmHg 83%

    6 Iunie, Sâmbătă

    Timp Temperatura Precipitaţii Vânt Presiune Umiditate
    00:00 +18°C° 0 mm 1 m/s 732 mmHg 83%
    01:00 +16°C° 0 mm 1 m/s 732 mmHg 83%
    02:00 +16°C° 0 mm 1 m/s 732 mmHg 82%
    03:00 +16°C° 0 mm 1 m/s 733 mmHg 81%
    04:00 +16°C° 0 mm 1 m/s 733 mmHg 80%
    05:00 +18°C° 0 mm 1 m/s 733 mmHg 79%
    06:00 +19°C° 0 mm 1 m/s 734 mmHg 78%
    07:00 +20°C° 0 mm 1 m/s 734 mmHg 78%
    08:00 +21°C° 0.1 mm 1 m/s 735 mmHg 73%
    09:00 +23°C° 0.1 mm 1 m/s 735 mmHg 69%
    10:00 +24°C° 0.1 mm 2 m/s 735 mmHg 65%
    11:00 +24°C° 0.7 mm 1 m/s 735 mmHg 66%
    12:00 +24°C° 0.7 mm 1 m/s 735 mmHg 67%
    13:00 +25°C° 0.7 mm 1 m/s 734 mmHg 69%
    14:00 +25°C° 0.8 mm 1 m/s 734 mmHg 69%
    15:00 +24°C° 0.8 mm 1 m/s 734 mmHg 69%
    16:00 +24°C° 0.8 mm 1 m/s 734 mmHg 69%
    17:00 +23°C° 0.4 mm 1 m/s 734 mmHg 75%
    18:00 +21°C° 0.4 mm 1 m/s 733 mmHg 80%
    19:00 +20°C° 0.4 mm 1 m/s 733 mmHg 85%
    20:00 +19°C° 0 mm 1 m/s 734 mmHg 86%
    21:00 +18°C° 0 mm 1 m/s 734 mmHg 87%
    22:00 +16°C° 0 mm 2 m/s 734 mmHg 88%
    23:00 +16°C° 0 mm 2 m/s 734 mmHg 88%

    7 Iunie, Duminică

    Timp Temperatura Precipitaţii Vânt Presiune Umiditate
    00:00 +16°C° 0 mm 2 m/s 734 mmHg 88%
    01:00 +15°C° 0 mm 2 m/s 734 mmHg 88%
    02:00 +15°C° 0 mm 2 m/s 734 mmHg 89%
    03:00 +15°C° 0 mm 1 m/s 734 mmHg 89%
    04:00 +15°C° 0 mm 1 m/s 734 mmHg 89%
    05:00 +18°C° 0 mm 1 m/s 735 mmHg 86%
    06:00 +20°C° 0 mm 1 m/s 735 mmHg 82%
    07:00 +22°C° 0 mm 1 m/s 735 mmHg 78%
    08:00 +23°C° 0.7 mm 2 m/s 735 mmHg 77%
    09:00 +24°C° 0.7 mm 2 m/s 735 mmHg 75%
    10:00 +25°C° 0.7 mm 3 m/s 736 mmHg 73%
    11:00 +25°C° 0.9 mm 3 m/s 735 mmHg 73%
    12:00 +25°C° 0.9 mm 3 m/s 735 mmHg 72%
    13:00 +26°C° 0.9 mm 3 m/s 735 mmHg 72%
    14:00 +26°C° 0.4 mm 3 m/s 734 mmHg 70%
    15:00 +26°C° 0.4 mm 2 m/s 734 mmHg 68%
    16:00 +26°C° 0.4 mm 2 m/s 734 mmHg 66%
    17:00 +25°C° 0.1 mm 2 m/s 734 mmHg 71%
    18:00 +23°C° 0.1 mm 2 m/s 734 mmHg 75%
    19:00 +20°C° 0.1 mm 2 m/s 734 mmHg 80%
    20:00 +20°C° 0.1 mm 2 m/s 734 mmHg 81%
    21:00 +19°C° 0.1 mm 2 m/s 734 mmHg 82%
    22:00 +18°C° 0.1 mm 2 m/s 734 mmHg 83%
    23:00 +18°C° 0.4 mm 2 m/s 734 mmHg 84%

    8 Iunie, Luni

    Timp Temperatura Precipitaţii Vânt Presiune Umiditate
    00:00 +17°C° 0.4 mm 2 m/s 734 mmHg 85%
    01:00 +18°C° 0.4 mm 1 m/s 734 mmHg 86%
    02:00 +18°C° 1.5 mm 1 m/s 734 mmHg 88%
    03:00 +18°C° 1.5 mm 1 m/s 734 mmHg 90%
    04:00 +18°C° 1.5 mm 1 m/s 734 mmHg 92%
    05:00 +18°C° 1 mm 1 m/s 734 mmHg 92%
    06:00 +19°C° 1 mm 1 m/s 735 mmHg 92%
    07:00 +20°C° 1 mm 1 m/s 735 mmHg 92%
    08:00 +20°C° 0.3 mm 1 m/s 735 mmHg 89%
    09:00 +21°C° 0.3 mm 1 m/s 735 mmHg 86%
    10:00 +22°C° 0.3 mm 1 m/s 736 mmHg 84%
    11:00 +23°C° 1.1 mm 1 m/s 735 mmHg 81%
    12:00 +23°C° 1.1 mm 1 m/s 735 mmHg 78%
    13:00 +24°C° 1.1 mm 1 m/s 735 mmHg 75%
    14:00 +24°C° 0.7 mm 1 m/s 735 mmHg 75%
    15:00 +24°C° 0.7 mm 1 m/s 735 mmHg 75%
    16:00 +24°C° 0.7 mm 1 m/s 734 mmHg 75%
    17:00 +23°C° 0.6 mm 1 m/s 734 mmHg 80%
    18:00 +21°C° 0.6 mm 1 m/s 734 mmHg 84%
    19:00 +20°C° 0.6 mm 1 m/s 734 mmHg 89%
    20:00 +19°C° 0 mm 1 m/s 735 mmHg 89%
    21:00 +18°C° 0 mm 1 m/s 735 mmHg 90%
    22:00 +18°C° 0 mm 1 m/s 735 mmHg 91%
    23:00 +16°C° 0.3 mm 1 m/s 735 mmHg 92%
    Arată mai mult